sat.trackr.live / text

‹ back to catalog

TURKSAT 3A

NORAD 33056 · 2008-030B

PAYLOAD ACTIVE UNKNOWN

§ Identity

Operator
Country
TURK
Launch date
2008-06-12
Launch site
FRGUI
Launch vehicle
Mass (kg)
RCS (m²)
24.79

Purposes: comms

External: N2YO · Heavens-Above · Gunter

§ Orbital elements

Epoch: 2026-05-25T03:56:31.122240Z

Period
1,436.08 min
Inclination
0.0805°
Eccentricity
0.0005132
Mean motion
1.00273193 rev/d
Perigee alt
35,764.6 km
Apogee alt
35,807.8 km
Semi-major
42,164.3 km
B*
0.0000e+0
RAAN
84.9255°
Arg perigee
332.4345°
Mean anomaly
286.5098°
Rev number
5,212

§ Raw data

TURKSAT 3A1 33056U 08030B   26145.16424910  .00000144  00000+0  00000+0 0  99902 33056   0.0805  84.9255 0005132 332.4345 286.5098  1.00273193 52124

JSON: /api/v1/satellites/33056 · /tle

For live sub-satellite position, see the globe view (requires WebGL).

§ Visibility from observer

Set your observer location to see the next 7 days of passes ≥ 10°. The values pass through the URL so the page stays shareable.

No JS? Fill the form by hand. The geolocation button needs JavaScript.